Showing default

OPS 9312 (IDSCS 2), 2216

Orbit data source: Space-Track

OPS 9312 (IDSCS 2), 2216 is a payload satellite owned by USAF SSD (US) in GEO that was launched on Thu, 16 Jun 1966 UTC via a TITAN IIIC launch vehicle from the Air Force Eastern Test Range (AFETR). Payload-class satellites include a variety of spacecraft equipped with specific instruments for various scientific and technological missions. These include communications satellites like Starlink; space stations such as the ISS; scientific satellites like the Hubble; Earth observation satellites from companies like Planet Labs, Umbra, and HawkEye 360; GPS; miniature CubeSats for education and research; and military/defense satellites.

Not visible in the next 10 days
Identifier
2216, 1966-053C
Orbit
GEO
Last TLE update
8 hours ago
Origin
Manufacturer
Philco-Ford WDL
Mission
Non-operational Defense Communications
Bus & Motor
IDCSP, Unknown motor
Mass
45 kg wet, 45 kg dry
Launch date (UTC)
1966-06-16 (59 years ago)
Launch vehicle
TITAN IIIC
Launch site
Air Force Eastern Test Range (AFETR)
Object type
Payload
Rocket body
Debris
Shape & HBR
Ico Poly, 0.9 m
Radar Cross Section
0.926 m², Medium (>0.1 m² and < 1m²)

Expand to show TLE details & history

TLE from 8 hours ago
0 OPS 9312 (IDSCS 2)
1 02216U 66053C   25182.82901059 -.00000129  00000-0  00000-0 0  9996
2 02216   8.0074  47.0802 0031394 207.7949  34.8508  1.07851883 45481
Epoch: 2025-07-01T19:53Z
TLE epoch observation values (Epoch: 2025-07-01T19:53:46.514Z)
Latitude
-7.14163°
Longitude
71.15321°
Altitude
33,684.025 km
Speed
3.158 km/s
True Right ascension
19h 18m 51s
True Declination
-7° 08' 03"
Sunlit
Object was in daylight at epoch
Visualization orbit readout
Latitude
1.29975°
Longitude
-162.2451°
Altitude
33,906.127 km
Speed
3.141 km/s
Apparent Right ascension
03h 43m 00s
Apparent Declination
-4° 00' 02"
Sunlit
Object is in daylight
Visualization observer readout
Local Sidereal Time
15:24:25
Azimuth
352.129° N
Elevation
-53.84°
Doppler factor
1
Orbital elements
Apogee altitude
33,914.258 km
Perigee altitude
33,662.062 km
Semi-major axis
40,166.297 km
Eccentricity
0.00314
Inclination
8.0074°
RAAN
47.0802°
Arg. of periapsis
207.7949°
True anomaly
Unknown
Mean anomaly
34.8508°
Eccentric anomaly
Unknown
Mean motion
0.26962 °/min
Orbital period
1,335.22 mins
BSTAR
0
Loading historical data...
2216 neighbors
Loading maneuver chart data...
Loading SW <> Apogee altitude chart data...
Loading historical data...
Loading historical data...
Loading historical data...
Loading historical data...
Loading historical data...
Loading historical data...
Loading historical data...

OPS 9312 (IDSCS 2) Visibility

Observer location: undefined°, undefined°

OPS 9312 (IDSCS 2) is likely not visible in the next few days
Span
Click to sort rows by Start time (UTC) header in descending order
Start Az.
Max El. time (UTC)
Max El. Az.
Max El.
End time (UTC)
End Az.
|